TimeCDT,TemperatureF,Dew PointF,Humidity,Sea Level PressureIn,VisibilityMPH,Wind Direction,Wind SpeedMPH,Gust SpeedMPH,PrecipitationIn,Events,Conditions,WindDirDegrees,DateUTC
12:53 AM,73.0,66.0,79,30.03,10.0,NW,3.5,-,N/A,,Overcast,320,2013-09-13 05:53:00
1:53 AM,72.0,66.0,81,30.03,10.0,Calm,Calm,-,N/A,,Overcast,0,2013-09-13 06:53:00
2:53 AM,70.0,64.0,81,30.03,10.0,NNE,3.5,-,N/A,,Clear,20,2013-09-13 07:53:00
3:53 AM,70.0,60.1,71,30.04,10.0,NE,6.9,-,N/A,,Clear,50,2013-09-13 08:53:00
4:53 AM,66.9,54.0,63,30.06,10.0,NE,4.6,-,N/A,,Clear,40,2013-09-13 09:53:00
5:53 AM,64.0,52.0,65,30.07,10.0,Calm,Calm,-,N/A,,Clear,0,2013-09-13 10:53:00
6:53 AM,60.1,52.0,75,30.09,10.0,Calm,Calm,-,N/A,,Clear,0,2013-09-13 11:53:00
7:53 AM,62.1,54.0,75,30.09,10.0,NE,3.5,-,N/A,,Clear,40,2013-09-13 12:53:00
8:53 AM,68.0,52.0,56,30.10,10.0,NNE,5.8,-,N/A,,Clear,30,2013-09-13 13:53:00
9:53 AM,70.0,50.0,49,30.10,10.0,East,6.9,-,N/A,,Clear,80,2013-09-13 14:53:00
10:53 AM,73.9,51.1,45,30.10,10.0,Variable,4.6,-,N/A,,Clear,0,2013-09-13 15:53:00
11:53 AM,75.0,48.0,38,30.08,10.0,Variable,6.9,-,N/A,,Clear,0,2013-09-13 16:53:00
12:53 PM,77.0,48.9,37,30.06,10.0,NE,9.2,-,N/A,,Clear,40,2013-09-13 17:53:00
1:53 PM,79.0,51.1,38,30.04,10.0,North,5.8,-,N/A,,Clear,350,2013-09-13 18:53:00
2:53 PM,79.0,48.9,35,30.03,10.0,Variable,6.9,-,N/A,,Clear,0,2013-09-13 19:53:00
3:53 PM,78.1,46.9,33,30.02,10.0,Variable,4.6,-,N/A,,Clear,0,2013-09-13 20:53:00
4:53 PM,77.0,48.0,36,30.01,10.0,NE,8.1,-,N/A,,Clear,50,2013-09-13 21:53:00
5:53 PM,77.0,50.0,39,30.01,10.0,Variable,3.5,-,N/A,,Clear,0,2013-09-13 22:53:00
6:53 PM,73.9,51.1,45,30.01,10.0,NE,8.1,-,N/A,,Clear,50,2013-09-13 23:53:00
7:53 PM,68.0,51.1,55,30.02,10.0,ENE,5.8,-,N/A,,Clear,60,2013-09-14 00:53:00
8:53 PM,66.9,50.0,54,30.04,10.0,NE,5.8,-,N/A,,Clear,50,2013-09-14 01:53:00
9:53 PM,64.0,50.0,60,30.05,10.0,NE,3.5,-,N/A,,Clear,40,2013-09-14 02:53:00
10:53 PM,60.1,51.1,72,30.05,10.0,North,-9999.0,-,N/A,,Clear,0,2013-09-14 03:53:00
11:53 PM,57.9,51.1,78,30.06,10.0,Calm,Calm,-,N/A,,Clear,0,2013-09-14 04:53:00